Regional Weather Roundup
Issued by NWS

Home | Current Version | Previous Version | Text Only | Print | Product List | Glossary Off
Versions: 1 2 3 4 5 6 7 8 9 10 11 12 13 14 15 16 17 18 19 20 21 22 23 24 25 26 27 28 29 30 31 32 33 34 35 36 37 38 39 40 41 42 43 44 45 46 47 48 49 50

000
ASUS43 KLOT 260803
RWRIL

ILLINOIS REGIONAL WEATHER ROUNDUP
NATIONAL WEATHER SERVICE CHICAGO/ROMEOVILLE IL
300 AM CDT THU APR 26 2018

NOTE: "FAIR" INDICATES FEW OR NO CLOUDS BELOW 12,000 FEET WITH NO
SIGNIFICANT WEATHER AND/OR OBSTRUCTIONS TO VISIBILITY.

* THESE STATIONS ARE NOT UNDER NWS QUALITY CONTROL. THEY ALSO MAY NOT
  REPORT WEATHER SUCH AS PRECIPITATION OR FOG.

ILZ001-002-007-009-015-016-024-260900-
NORTHWEST ILLINOIS

CITY           SKY/WX    TMP DP  RH WIND       PRES   REMARKS
MOLINE         FAIR      37  31  78 E5        29.96F WCI  33
STERLING*      FAIR      35  30  82 CALM      29.98F
SAVANNA*       FAIR      35  31  85 SE3       29.97F
$$

ILZ003-004-008-010-011-017-018-260900-
NORTH CENTRAL ILLINOIS

CITY           SKY/WX    TMP DP  RH WIND       PRES   REMARKS
ROCKFORD       FAIR      36  28  73 CALM      29.99F
FREEPORT*      FAIR      33  28  83 SE3       29.98F
ROCHELLE*      FAIR      34  28  80 CALM      29.99S
DE KALB*       FAIR      36  30  77 SW3       29.98S
$$

ILZ005-006-012>014-019>023-260900-
NORTHEAST ILLINOIS

CITY           SKY/WX    TMP DP  RH WIND       PRES   REMARKS
CHICAGO-OHARE  FAIR      37  29  72 W3        29.96F
CHICAGO-MIDWAY FAIR      40  31  70 N3        29.96F
AURORA         FAIR      29  25  85 NW3       29.97F
LANSING*       FAIR      31  31  99 CALM      29.96S
JOLIET*        FAIR      34  33  96 CALM      29.97S
WAUKEGAN       FAIR      33  29  85 W3        29.96F
DUPAGE AIRPORT FAIR      33  30  88 CALM      29.96F
KANKAKEE*      FAIR      32  28  86 CALM      29.98R
WHEELING       FAIR      36  31  82 CALM      29.98F
MORRIS*        FAIR      32  28  85 W6        29.97S WCI  26
ROMEOVILLE*    FAIR      37  32  84 CALM      29.97S
NORTHERLY ISL    N/A     40  31  70 CALM        N/A
$$

LMZ740>746-260900-
SOUTHERN LAKE MICHIGAN

STATION/POSITION SKY/WX   TEMP    WIND        PRES    VSBY  WAVE
                          AIR SEA DIR/SP/G                  HT/PER
                          (F)     (DEG/KT/KT) (MB)    (MI)  (FT/S)
HARRISON CRIB              42     300/  3/  4   N/A
BURNHAM HARBOR             41     310/  2       N/A
CALUMET HARBOR             39     330/  4/  5 1014.1F
BURNS HARBOR               40     350/  6/  8 1014.9F
MICHIGAN CITY              38     330/  5/  6   N/A
ST. JOSEPH                 40 43  360/  6/  8 1015.2F         2/ 5
$$

ILZ025>027-034>036-040-047-049-050-058-095>099-260900-
WEST-CENTRAL ILLINOIS

CITY           SKY/WX    TMP DP  RH WIND       PRES   REMARKS
QUINCY         CLEAR     43  41  93 W6        29.93F
GALESBURG*     FAIR      44  36  71 E5        29.97F
MACOMB*        CLEAR     39  32  73 E3        29.98S
JACKSONVILLE*  PTCLDY    40  34  80 E6        29.94F
PITTSFIELD*    PTCLDY    47  39  74 NW5       29.94F
$$

ILZ028>032-037-038-041>044-048-051>054-059>061-260900-
CENTRAL ILLINOIS

CITY           SKY/WX    TMP DP  RH WIND       PRES   REMARKS
PONTIAC        FAIR      33  31  94 CALM      29.98S
BLOOMINGTON    FAIR      36  29  75 E9        29.96F WCI  29
DECATUR        FAIR      36  33  89 NE6       29.95F WCI  31
PEORIA         FAIR      41  31  67 E5        29.97S
LACON*         FAIR      33  29  85 CALM      29.97F
LINCOLN*       FAIR      38  34  83 CALM      29.95F
SPRINGFIELD    FAIR      43  35  73 E7        29.95F
TAYLORVILLE    FAIR      46  33  61 NE7       29.95S
$$

ILZ033-039-045-046-055>057-062-063-260900-
EAST-CENTRAL ILLINOIS

CITY           SKY/WX    TMP DP  RH WIND       PRES   REMARKS
CHAMPAIGN      FAIR      40  30  67 NE9       29.94F
DANVILLE*      FAIR      34  32  92 CALM      29.93F
RANTOUL*       FAIR      41  33  75 NE3       29.95F
MATTOON        FAIR      43  36  76 NE7       29.93F
PARIS*         FAIR      41  33  73 N3        29.95F
$$

ILZ079-100>102-260900-
SOUTHWEST ILLINOIS

CITY           SKY/WX    TMP DP  RH WIND       PRES   REMARKS
BELLEVILLE     CLOUDY    54  53  98 CALM      29.91F FOG
CAHOKIA*       CLOUDY    53  50  89 CALM      29.91F
SPARTA*        LGT RAIN  53  53 100 NE6       29.92F
$$

ILZ064>066-069>071-074>076-080>082-084>086-088>090-092>094-260900-
SOUTH-CENTRAL ILLINOIS

CITY           SKY/WX    TMP DP  RH WIND       PRES   REMARKS
CARBONDALE     CLOUDY    54  53  97 N5        29.90F FOG
CAIRO*         CLOUDY    55  54  96 N5        29.87F
EFFINGHAM*     FAIR      49  38  64 CALM      29.95S
MARION         LGT RAIN  54  54  98 N6        29.91S
MT. VERNON     CLOUDY    53  45  74 NE3       29.92F
CENTRALIA*     CLOUDY    55  43  64 NE5       29.92S
SALEM*         CLOUDY    55  37  52 E5        29.93S
METROPOLIS*    CLOUDY    55  55  97 CALM      29.88F
$$

ILZ067-068-072-073-078-083-087-091-260900-
SOUTHEAST ILLINOIS

CITY           SKY/WX    TMP DP  RH WIND       PRES   REMARKS
LAWRENCEVILLE  FAIR      50  35  56 MISG      29.93F
FLORA*         FAIR      52  39  61 NE3       29.94S
FAIRFIELD*     CLOUDY    54  36  51 NE5       29.91F
HARRISBURG*    LGT RAIN  55  54  95 NE12      29.90F
ROBINSON*      FAIR      46  34  62 NE7       29.94F
CARMI*         CLOUDY    54  42  63 NE5       29.92S
$$

ABBREVIATIONS USED IN REMARKS
   TC - TEMPERATURE IN CELSIUS
  WCI - WIND CHILL INDEX
   HX - HEAT INDEX
  VSB - VISIBILITY
$$





USA.gov is the U.S. government's official web portal to all federal, state and local government web resources and services.